Back to catalog

BEIDOU 12

AliveNavigationMEO
NORAD 38250·PAYLOAD·🇨🇳 China

Launched Apr 29, 2012 from Xichang Satellite Launch Center

Loading…

Next Passes (next 24 hours)

TLE

FreshSource: Space-Track

Epoch: Sep 14, 2026, 07:46 UTC

1 38250U 12018A   26257.32370984 -.00000064  00000-0  00000-0 0  9999
2 38250  55.6774 301.8643 0023020 272.6948  87.1052  1.86229850 97600

Track BEIDOU 12 in real time with AllMySat

Download on the App Store